[[{"header":{"parameterUnit":"m.s-1","parameterCategory":1,"la1":30.2991,"la2":30.254,"lo1":-89.0895,"lo2":-89.0444,"dy":0.0017,"dx":0.0017,"nx":28,"ny":28,"refTime":"2023-10-31T09:00:00:Z","depth":0,"parameterNumber":2,"parameterNumberName":"U-component_of_WINDS"},"data":[0,0,0,0,0,0,0,0,0,0,0,0,0,0,0,0,0,0,0,0,0,0,0,0,0,0,0,0,0,0,0,0,0,0,0,0,0,0,0,0,0,0,0,0,0,0,0,0,0,0,0,0,0,0,0,0,0,0,-2.1952,-2.1953,0,-2.2022,-2.2023,-2.2024,-2.1999,-2.1997,-2.1996,-2.1994,-2.2066,-2.2069,-2.2072,0,0,0,0,0,0,0,0,0,0,0,0,0,-2.1797,-2.18,-2.1952,-2.1953,-2.1954,-2.2022,-2.2023,-2.2024,-2.1999,-2.1997,-2.1995,-2.1993,-2.2065,-2.2069,-2.2073,0,0,0,0,0,0,0,0,0,0,0,0,0,-2.1865,-2.1801,-2.1952,-2.195,-2.195,-2.2022,-2.2023,-2.2024,-2.1999,-2.1997,-2.1995,-2.1992,-2.2063,-2.2068,-2.2073,-2.2152,0,0,-2.2089,-2.2091,0,0,0,0,0,0,0,0,-2.1862,-2.1871,-2.1949,-2.195,-2.1951,-2.1999,-2.1995,-2.2067,-2.2,-2.1981,-2.1994,-2.1991,-2.2046,-2.2052,-2.207,-2.2155,-2.2158,-2.2089,-2.2092,-2.2094,-2.2096,0,0,0,0,0,0,0,-2.1857,-2.1868,-2.198,-2.195,-2.1951,-2.1945,-2.1952,-2.2008,-2.2026,-2.1982,-2.1981,-2.1989,-2.2046,-2.2065,-2.2072,-2.2159,-2.2089,-2.2094,-2.2097,-2.2099,-2.2311,-2.2314,0,0,0,0,0,0,-2.1852,-2.1864,-2.1978,-2.1982,-2.1899,-2.195,-2.1958,-2.1986,-2.2025,-2.2028,-2.1991,-2.1988,-2.2058,-2.2066,-2.2074,-2.2169,-2.2094,-2.2099,-2.2102,-2.2309,-2.2312,-2.2315,0,0,0,0,0,0,-2.1849,-2.1862,-2.1975,-2.1923,-2.1937,-2.1955,-2.1987,-2.1989,-2.2009,-2.2032,-2.2034,-2.2008,-2.2056,-2.2067,-2.2132,-2.2171,-2.2101,-2.2106,-2.2305,-2.231,-2.2313,-2.2358,0,0,0,0,0,0,-2.1844,-2.1861,-2.1891,-2.1924,-2.194,-2.2032,-2.1989,-2.1992,-2.2017,-2.2014,-2.2048,-2.2052,-2.2055,-2.2125,-2.2138,-2.2177,-2.211,-2.2302,-2.2307,-2.2312,-2.2354,-2.2363,-2.2372,0,0,0,0,0,-2.1839,-2.1901,-2.1893,-2.1907,-2.1978,-2.2035,-2.2044,-2.2046,-2.2021,-2.2051,-2.2065,-2.2051,-2.2164,-2.2132,-2.2146,-2.2187,-2.23,-2.2306,-2.2312,-2.2349,-2.2361,-2.2371,0,0,0,0,0,0,-2.1874,-2.1906,-2.1897,-2.1972,-2.2001,-2.203,-2.2069,-2.2059,-2.2096,-2.2091,-2.2093,-2.2101,-2.2168,-2.2184,-2.2147,-2.2265,-2.2228,-2.2237,-2.2252,-2.2264,-2.2273,-2.2268,-2.2114,0,0,0,0,0,-2.189,-2.1933,-2.1959,-2.2023,-2.2038,-2.2051,-2.2076,-2.2075,-2.2105,-2.2117,-2.2137,-2.2167,-2.2209,-2.2237,-2.2277,-2.2355,-2.2362,-2.239,-2.2399,-2.2406,-2.2415,-2.2457,-2.247,-2.2334,-2.2334,-2.2334,0,0,-2.1924,-2.1947,-2.1975,-2.203,-2.2053,-2.2098,-2.2061,-2.2111,-2.2145,-2.2125,-2.2188,-2.2203,-2.2236,-2.2309,-2.2341,-2.2324,-2.2453,-2.2414,-2.2419,-2.2424,-2.2464,-2.2477,-2.2489,-2.2338,-2.2337,-2.2336,0,0,-2.201,-2.2032,-2.2087,-2.211,-2.2144,-2.2152,-2.2166,-2.2197,-2.2206,-2.2269,-2.2256,-2.2295,-2.2368,-2.2392,-2.2414,-2.2508,-2.2496,-2.2521,-2.2569,-2.2611,-2.2621,-2.2631,-2.2665,-2.2677,-2.2529,-2.2529,-2.2529,0,-2.2049,-2.2117,-2.2117,-2.2168,-2.2193,-2.2176,-2.2233,-2.2255,-2.23,-2.2318,-2.2297,-2.2388,-2.2409,-2.2487,-2.251,-2.2528,-2.2543,-2.2518,-2.262,-2.2629,-2.2638,-2.2671,-2.2684,-2.2532,-2.2531,-2.2531,-2.2531,0,-2.2163,-2.221,-2.225,-2.2295,-2.2324,-2.2377,-2.2386,-2.2415,-2.2411,-2.2421,-2.2486,-2.251,-2.2555,-2.2573,-2.257,-2.2651,-2.2639,-2.2619,-2.2583,-2.2654,-2.2685,-2.2697,-2.2536,-2.2535,-2.2534,-2.2533,0,0,-2.2275,-2.2317,-2.2333,-2.2352,-2.2388,-2.2425,-2.2477,-2.252,-2.2546,-2.2577,-2.2621,-2.2683,-2.2665,-2.2689,-2.2689,-2.2725,-2.2798,-2.2701,-2.2701,-2.2719,-2.2889,-2.2905,-2.2919,-2.279,-2.2792,-2.2794,-2.2886,0,-2.2364,-2.2456,-2.2458,-2.2542,-2.2586,-2.257,-2.2615,-2.2642,-2.2653,-2.2691,-2.2702,-2.2746,-2.2718,-2.2733,-2.2768,-2.2782,-2.2833,-2.2775,-2.2831,-2.2833,-2.2825,-2.2935,-2.2952,-2.3038,-2.2898,-2.29,-2.2902,0,-2.2482,-2.2517,-2.2606,-2.2635,-2.2654,-2.2695,-2.2735,-2.2771,-2.2801,-2.2806,-2.2833,-2.2827,-2.288,-2.284,-2.2913,-2.2874,-2.2897,-2.2907,-2.291,-2.2917,-2.2873,-2.2946,-2.3066,-2.3079,-2.2921,-2.2919,-2.2918,0,-2.2556,-2.2626,-2.2688,-2.2705,-2.274,-2.277,-2.2786,-2.2813,-2.2839,-2.2873,-2.289,-2.293,-2.2953,-2.2984,-2.2988,-2.2959,-2.3062,-2.3023,-2.3068,-2.3068,-2.3092,-2.3091,-2.3218,-2.3104,-2.3104,-2.3104,-2.3103,0,-2.2658,-2.2713,-2.2722,-2.276,-2.2821,-2.2821,-2.2882,-2.2896,-2.292,-2.2961,-2.2949,-2.2987,-2.299,-2.3029,-2.3032,-2.3093,-2.3103,-2.3108,-2.3109,-2.311,-2.311,-2.3127,-2.3121,-2.3107,-2.3106,-2.3106,-2.3105,0,-2.2752,-2.276,-2.2827,-2.2854,-2.2862,-2.2906,-2.293,-2.2966,-2.2975,-2.3026,-2.3038,-2.3052,-2.3098,-2.3104,-2.3158,-2.316,-2.3233,-2.3226,-2.3223,-2.3223,-2.3268,-2.3264,-2.3412,-2.3432,-2.3303,-2.3304,-2.3305,0,-2.2817,-2.2859,-2.2891,-2.2917,-2.2935,-2.2977,-2.3003,-2.3004,-2.3032,-2.3069,-2.3101,-2.3145,-2.3181,-2.3254,-2.3269,-2.331,-2.3305,-2.3354,-2.3311,-2.3311,-2.3307,-2.3305,-2.331,-2.3363,-2.3364,-2.3365,-2.3366,0,-2.2932,-2.2933,-2.2972,-2.3012,-2.3043,-2.3075,-2.3104,-2.3126,-2.3131,-2.3163,-2.3209,-2.3237,-2.3291,-2.3335,-2.3375,-2.3391,-2.338,-2.3379,-2.3392,-2.3395,-2.3392,-2.3395,-2.3247,-2.3376,-2.3375,-2.3375,-2.3374,-2.3374,-2.3014,-2.3051,-2.3079,-2.3122,-2.3144,-2.3172,-2.3208,-2.322,-2.3259,-2.3303,-2.3301,-2.3352,-2.338,-2.3432,-2.3451,-2.3491,-2.3475,-2.3493,-2.3498,-2.3503,-2.3508,-2.3384,-2.3498,-2.3498,-2.3497,-2.3497,-2.3497,0,-2.3129,-2.3146,-2.3186,-2.3227,-2.3261,-2.3246,-2.3278,-2.3307,-2.3353,-2.3379,-2.3414,-2.3467,-2.351,-2.3527,-2.3569,-2.3597,-2.3593,-2.3608,-2.3607,-2.3611,-2.352,-2.3505,-2.3611,-2.3611,-2.3611,-2.3611,-2.3611,-2.3611,-2.3194,-2.3255,-2.326,-2.3332,-2.3348,-2.3398,-2.3418,-2.3443,-2.3464,-2.3524,-2.3559,-2.357,-2.3593,-2.3636,-2.3674,-2.3678,-2.3694,-2.3712,-2.3714,-2.3629,-2.3617,-2.3606,-2.3593,-2.3715,-2.3715,-2.3802,-2.3803,-2.3803]},{"header":{"parameterUnit":"m.s-1","parameterCategory":1,"la1":30.2991,"la2":30.254,"lo1":-89.0895,"lo2":-89.0444,"dy":0.0017,"dx":0.0017,"nx":28,"ny":28,"refTime":"2023-10-31T09:00:00:Z","depth":0,"parameterNumber":3,"parameterNumberName":"V-component_of_WINDS"},"data":[0,0,0,0,0,0,0,0,0,0,0,0,0,0,0,0,0,0,0,0,0,0,0,0,0,0,0,0,0,0,0,0,0,0,0,0,0,0,0,0,0,0,0,0,0,0,0,0,0,0,0,0,0,0,0,0,0,0,-8.1531,-8.1532,0,-8.1636,-8.1637,-8.1638,-8.1571,-8.1568,-8.1565,-8.1562,-8.1663,-8.1668,-8.1674,0,0,0,0,0,0,0,0,0,0,0,0,0,-8.1266,-8.1271,-8.153,-8.1532,-8.1533,-8.1635,-8.1637,-8.1638,-8.1571,-8.1568,-8.1564,-8.156,-8.1661,-8.1667,-8.1674,0,0,0,0,0,0,0,0,0,0,0,0,0,-8.1377,-8.1273,-8.153,-8.1512,-8.1512,-8.1635,-8.1637,-8.1639,-8.1572,-8.1568,-8.1563,-8.1559,-8.1659,-8.1667,-8.1675,-8.182,0,0,-8.1701,-8.1704,0,0,0,0,0,0,0,0,-8.137,-8.1386,-8.1514,-8.1514,-8.1513,-8.1586,-8.158,-8.1699,-8.1573,-8.1549,-8.1562,-8.1556,-8.164,-8.165,-8.168,-8.1824,-8.1829,-8.1701,-8.1706,-8.171,-8.1712,0,0,0,0,0,0,0,-8.1363,-8.1381,-8.1572,-8.1515,-8.1515,-8.1497,-8.1507,-8.1602,-8.1619,-8.1551,-8.1546,-8.156,-8.1639,-8.1672,-8.1681,-8.183,-8.1701,-8.1708,-8.1714,-8.1717,-8.2099,-8.2104,0,0,0,0,0,0,-8.1357,-8.1375,-8.1568,-8.1575,-8.1429,-8.1505,-8.1517,-8.1567,-8.1618,-8.1622,-8.1564,-8.1556,-8.166,-8.1672,-8.1685,-8.1858,-8.171,-8.1718,-8.1723,-8.2094,-8.21,-8.2106,0,0,0,0,0,0,-8.1352,-8.1375,-8.1564,-8.1474,-8.1497,-8.1515,-8.1571,-8.1571,-8.1604,-8.1628,-8.163,-8.1594,-8.1656,-8.1673,-8.1787,-8.186,-8.1721,-8.1729,-8.2088,-8.2096,-8.2103,-8.2205,0,0,0,0,0,0,-8.1345,-8.1374,-8.1431,-8.1476,-8.1502,-8.1667,-8.1576,-8.1577,-8.1619,-8.1611,-8.1657,-8.166,-8.1654,-8.1775,-8.1796,-8.1869,-8.1736,-8.2081,-8.2091,-8.21,-8.2196,-8.2216,-8.2233,0,0,0,0,0,-8.1336,-8.1454,-8.1434,-8.1457,-8.1574,-8.1672,-8.1686,-8.1679,-8.1625,-8.1682,-8.1697,-8.1659,-8.1849,-8.1787,-8.181,-8.1887,-8.2077,-8.2089,-8.21,-8.2187,-8.2212,-8.2232,0,0,0,0,0,0,-8.1414,-8.1459,-8.1438,-8.1575,-8.162,-8.166,-8.1731,-8.1705,-8.1764,-8.1753,-8.1739,-8.175,-8.187,-8.189,-8.182,-8.203,-8.1954,-8.1971,-8.2013,-8.2037,-8.2055,-8.2048,-8.1743,0,0,0,0,0,-8.1447,-8.1526,-8.156,-8.1677,-8.1701,-8.1713,-8.1755,-8.1745,-8.1791,-8.1809,-8.1833,-8.1877,-8.1946,-8.1992,-8.2058,-8.2198,-8.2207,-8.2262,-8.2281,-8.2296,-8.2311,-8.2386,-8.2411,-8.2144,-8.2143,-8.2143,0,0,-8.1517,-8.1551,-8.1601,-8.1694,-8.1728,-8.1807,-8.1729,-8.1816,-8.1874,-8.1821,-8.1932,-8.1951,-8.1998,-8.2127,-8.2184,-8.2147,-8.2386,-8.2311,-8.2323,-8.2329,-8.2401,-8.2426,-8.2448,-8.2151,-8.215,-8.2149,0,0,-8.1684,-8.1718,-8.182,-8.1857,-8.191,-8.1917,-8.1941,-8.1986,-8.1998,-8.2108,-8.2071,-8.2138,-8.2258,-8.2294,-8.2328,-8.251,-8.2477,-8.2531,-8.2629,-8.2703,-8.2724,-8.2742,-8.2807,-8.2831,-8.2546,-8.2546,-8.2546,0,-8.1763,-8.1883,-8.1875,-8.1966,-8.2008,-8.1966,-8.2068,-8.2103,-8.2174,-8.2203,-8.216,-8.2311,-8.234,-8.2476,-8.2521,-8.255,-8.2576,-8.2526,-8.2722,-8.274,-8.2758,-8.2819,-8.2844,-8.2552,-8.2552,-8.2551,-8.255,0,-8.1978,-8.2062,-8.2137,-8.221,-8.226,-8.2356,-8.236,-8.2411,-8.2397,-8.2408,-8.2521,-8.2555,-8.2626,-8.2658,-8.2644,-8.2792,-8.2767,-8.2724,-8.2647,-8.279,-8.2847,-8.2871,-8.2561,-8.2559,-8.2557,-8.2556,0,0,-8.2197,-8.2265,-8.2293,-8.2326,-8.2382,-8.2446,-8.2539,-8.2612,-8.2656,-8.2706,-8.2783,-8.2886,-8.2847,-8.2886,-8.2875,-8.294,-8.3082,-8.2888,-8.2889,-8.2923,-8.3247,-8.328,-8.3308,-8.306,-8.3065,-8.3068,-8.3243,0,-8.2368,-8.2534,-8.2529,-8.2683,-8.276,-8.2722,-8.2803,-8.2845,-8.2857,-8.2923,-8.2935,-8.3009,-8.2951,-8.2974,-8.3037,-8.3052,-8.3147,-8.3039,-8.3131,-8.3134,-8.3121,-8.3338,-8.3373,-8.3536,-8.3266,-8.327,-8.3272,0,-8.2589,-8.265,-8.2813,-8.2859,-8.2891,-8.2964,-8.303,-8.3094,-8.314,-8.3145,-8.3189,-8.3168,-8.3261,-8.3182,-8.3309,-8.3236,-8.3273,-8.3286,-8.3292,-8.33,-8.3212,-8.3352,-8.3588,-8.3613,-8.3308,-8.3305,-8.3302,0,-8.2734,-8.2856,-8.2969,-8.2998,-8.3054,-8.3107,-8.3132,-8.3174,-8.3218,-8.3275,-8.3303,-8.337,-8.3406,-8.3457,-8.3454,-8.3397,-8.3582,-8.3503,-8.3587,-8.3588,-8.3628,-8.3626,-8.3874,-8.3652,-8.3652,-8.3651,-8.3651,0,-8.2925,-8.3026,-8.3035,-8.3104,-8.3216,-8.3209,-8.3318,-8.3338,-8.3376,-8.3447,-8.3416,-8.3483,-8.3476,-8.3542,-8.354,-8.3646,-8.3662,-8.3667,-8.3665,-8.367,-8.367,-8.3694,-8.3683,-8.3658,-8.3656,-8.3655,-8.3654,0,-8.3106,-8.3116,-8.3236,-8.328,-8.3294,-8.3374,-8.341,-8.3475,-8.3485,-8.3576,-8.3596,-8.3611,-8.3688,-8.3691,-8.3778,-8.3777,-8.3906,-8.3891,-8.3891,-8.3888,-8.3973,-8.3965,-8.4245,-8.4282,-8.4036,-8.4038,-8.404,0,-8.3227,-8.3305,-8.3358,-8.3405,-8.3434,-8.3509,-8.3555,-8.355,-8.3598,-8.3658,-8.3716,-8.379,-8.385,-8.3975,-8.3992,-8.4059,-8.4045,-8.4139,-8.4055,-8.4058,-8.4047,-8.4043,-8.405,-8.4156,-8.4158,-8.4161,-8.4162,0,-8.3443,-8.3444,-8.3513,-8.3584,-8.3639,-8.3694,-8.3744,-8.3783,-8.3784,-8.384,-8.392,-8.3967,-8.4057,-8.4132,-8.4197,-8.422,-8.4192,-8.4189,-8.4212,-8.4218,-8.4215,-8.4218,-8.3936,-8.4182,-8.418,-8.4179,-8.4178,-8.4177,-8.3598,-8.3665,-8.3713,-8.379,-8.3828,-8.3877,-8.394,-8.3959,-8.4027,-8.4102,-8.4094,-8.4183,-8.4227,-8.4312,-8.4341,-8.4409,-8.4376,-8.4409,-8.4418,-8.4426,-8.4436,-8.4204,-8.442,-8.442,-8.4419,-8.4419,-8.4418,0,-8.3812,-8.3842,-8.3913,-8.3986,-8.4046,-8.4017,-8.4071,-8.4123,-8.4202,-8.4247,-8.4307,-8.4398,-8.447,-8.4494,-8.4563,-8.4613,-8.4602,-8.4631,-8.4628,-8.4634,-8.4461,-8.4434,-8.464,-8.464,-8.4639,-8.4639,-8.4639,-8.4639,-8.3931,-8.4043,-8.405,-8.418,-8.4208,-8.4297,-8.4331,-8.4375,-8.441,-8.4515,-8.4576,-8.4591,-8.4627,-8.4699,-8.4763,-8.4768,-8.4795,-8.483,-8.483,-8.4668,-8.4646,-8.4624,-8.4599,-8.4836,-8.4836,-8.4997,-8.4998,-8.4999]}]]